KD2GO Weather Reports


Display with metric or nautical units.
time (UTC)temp
F
wind
direction
speed
MPH
gust
MPH
rain 1hr
in
rain 24hr
in
rain mn
in
humidity
%
barometer
mb
20260505072956 58 338 1.0 3.0 0.00 0.00 0.00 66 1009.8
20260505065958 58 338 1.0 4.0 0.00 0.00 0.00 65 1009.9
20260505064456 58 328 1.0 5.0 0.00 0.00 0.00 64 1009.8
20260505061456 58 169 1.0 4.0 0.00 0.00 0.00 64 1009.9
20260505055958 58 53 1.0 3.0 0.00 0.00 0.00 62 1009.9
20260505052956 58 34 1.0 3.0 0.00 0.00 0.00 61 1010.0
20260505051456 58 88 2.0 4.0 0.00 0.00 0.00 61 1009.9
20260505041500 59 95 2.0 5.0 0.00 0.00 0.00 58 1009.8
20260505040000 59 93 2.0 4.0 0.00 0.00 0.00 58 1009.7
20260505034459 59 89 2.0 5.0 0.00 0.00 0.00 58 1009.8
20260505032959 59 90 2.0 5.0 0.00 0.00 0.00 56 1009.9
20260505031459 60 59 2.0 4.0 0.00 0.00 0.00 56 1010.0
20260505030001 60 61 2.0 4.0 0.00 0.00 0.00 55 1010.0
20260505024500 61 34 2.0 5.0 0.00 0.00 0.00 54 1010.1
20260505022959 61 66 1.0 4.0 0.00 0.00 0.00 53 1010.2
20260505021459 61 41 1.0 3.0 0.00 0.00 0.00 53 1010.3
20260505015958 61 44 1.0 3.0 0.00 0.00 0.00 52 1010.3
20260505014458 62 44 1.0 3.0 0.00 0.00 0.00 51 1010.3
20260505012959 61 44 1.0 3.0 0.00 0.00 0.00 51 1010.0
20260505011458 61 324 0.0 2.0 0.00 0.00 0.00 53 1009.9
20260505004458 62 324 1.0 5.0 0.00 0.00 0.00 52 1009.5
20260505001458 63 335 1.0 3.0 0.00 0.00 0.00 50 1009.4
20260504235958 64 335 2.0 6.0 0.00 0.00 0.00 47 1009.3
20260504234458 65 25 1.0 4.0 0.00 0.00 0.00 48 1009.2
20260504232959 66 316 3.0 9.0 0.00 0.00 0.00 45 1009.0
20260504231457 67 307 3.0 7.0 0.00 0.00 0.00 45 1008.9
20260504224500 68 304 4.0 12.0 0.00 0.00 0.00 42 1008.8
20260504221459 70 310 3.0 10.0 0.00 0.00 0.00 41 1008.8
20260504215958 71 338 2.0 8.0 0.00 0.00 0.00 41 1008.8
20260504214458 70 298 2.0 5.0 0.00 0.00 0.00 42 1008.9
20260504212958 70 341 5.0 13.0 0.00 0.00 0.00 41 1008.9
20260504211458 71 326 4.0 10.0 0.00 0.00 0.00 38 1009.0
20260504210000 69 275 5.0 10.0 0.00 0.00 0.00 40 1009.1
20260504204458 71 288 5.0 12.0 0.00 0.00 0.00 39 1009.3
20260504202959 71 340 5.0 16.0 0.00 0.00 0.00 40 1009.2
20260504195958 70 263 5.0 11.0 0.00 0.00 0.00 39 1009.4
20260504190000 69 327 6.0 16.0 0.00 0.00 0.00 38 1009.9
20260504184458 68 306 6.0 20.0 0.00 0.00 0.00 40 1010.0
20260504182958 68 298 5.0 15.0 0.00 0.00 0.00 40 1010.1
20260504181458 68 359 4.0 13.0 0.00 0.00 0.00 41 1010.4
20260504175959 68 117 5.0 13.0 0.00 0.00 0.00 41 1010.7
20260504174458 67 281 6.0 16.0 0.00 0.00 0.00 38 1010.8
20260504172959 67 264 6.0 13.0 0.00 0.00 0.00 39 1011.0
20260504171458 66 314 6.0 12.0 0.00 0.00 0.00 40 1011.1
20260504081456 44 285 0.0 0.0 0.00 0.00 0.00 63 1013.4